Date String (YYYY-MM-DD hh:mm:ss) UTC,Instrument flags,Ambient pressure (hPa),Sample flow (lpm),Bypass flow (lpm),Sample temperature (°C),Ambient temperature (°C),ASC tube jacket temperature (°C),LED temperature (°C),Box temperature (°C),Sample RH (%),Span deviation,Mass concentration (μg/m³),Mass concentration (μg/m³),Mass concentration (μg/m³)
DateTimeUTC,F1_M11,P_M11,Q1_M11,Q2_M11,T1_M11,T2_M11,T3_M11,T4_M11,T5_M11,U1_M11,ZSPAN_M11,X0_M11,X2_M11,X1_M11
2022-05-20 13:00:00,,0817.8,5.00,0.00,23.9,22.6,00.0,33.0,25.6,21.0,0000.0,0002.32,0002.03,0001.75
2022-05-20 13:01:00,,0817.8,5.00,0.00,23.8,22.6,00.0,33.0,25.6,21.0,0000.0,0002.29,0001.94,0001.65
2022-05-20 13:02:00,,0817.8,5.00,0.00,23.8,22.6,00.0,32.9,25.6,21.0,0000.0,0002.20,0001.87,0001.57
2022-05-20 13:03:00,,0817.8,4.99,0.00,23.8,22.6,00.0,32.9,25.6,21.0,0000.0,0002.05,0001.75,0001.50
2022-05-20 13:04:00,,0817.7,5.00,0.00,23.8,22.6,00.0,32.9,25.6,21.0,0000.0,0001.89,0001.63,0001.40
2022-05-20 13:05:00,,0817.6,5.01,0.00,23.8,22.6,00.0,32.9,25.6,21.1,0000.0,0001.79,0001.51,0001.30
2022-05-20 13:06:00,,0817.7,5.00,0.00,23.8,22.6,00.0,32.9,25.5,21.2,0000.0,0001.70,0001.41,0001.22
2022-05-20 13:07:00,,0817.8,4.99,0.00,23.8,22.6,00.0,32.9,25.6,21.3,0000.0,0001.70,0001.39,0001.19
2022-05-20 13:08:00,,0818.0,5.00,0.00,23.8,22.6,00.0,32.9,25.5,21.4,0000.0,0001.77,0001.42,0001.20
2022-05-20 13:09:00,,0818.0,5.00,0.00,23.8,22.5,00.0,32.9,25.5,21.4,0000.0,0001.90,0001.46,0001.21
2022-05-20 13:10:00,,0818.0,5.00,0.00,23.7,22.5,00.0,32.9,25.5,21.4,0000.0,0001.98,0001.49,0001.20
2022-05-20 13:11:00,,0818.0,5.00,0.00,23.7,22.5,00.0,32.9,25.5,21.5,0000.0,0001.90,0001.49,0001.21
2022-05-20 13:12:00,,0817.9,4.99,0.00,23.7,22.5,00.0,32.8,25.4,21.5,0000.0,0001.88,0001.49,0001.21
2022-05-20 13:13:00,,0817.9,5.00,0.00,23.7,22.4,00.0,32.8,25.4,21.6,0000.0,0001.90,0001.49,0001.21
2022-05-20 13:14:00,,0818.0,5.01,0.00,23.6,22.4,00.0,32.8,25.4,21.6,0000.0,0001.90,0001.49,0001.21
2022-05-20 13:15:00,,0818.0,5.00,0.00,23.6,22.4,00.0,32.8,25.4,21.6,0000.0,0001.94,0001.51,0001.23
2022-05-20 13:16:00,,0818.0,4.98,0.00,23.7,22.4,00.0,32.8,25.5,21.6,0000.0,0001.94,0001.52,0001.24
2022-05-20 13:17:00,,0818.0,5.01,0.00,23.7,22.5,00.0,32.7,25.5,21.5,0000.0,0001.92,0001.53,0001.26
2022-05-20 13:18:00,,0818.0,5.00,0.00,23.7,22.5,00.0,32.7,25.5,21.4,0000.0,0001.89,0001.53,0001.27
2022-05-20 13:19:00,,0818.0,5.01,0.00,23.7,22.5,00.0,32.7,25.5,21.4,0000.0,0001.82,0001.52,0001.28
2022-05-20 13:20:00,,0818.0,4.99,0.00,23.7,22.5,00.0,32.7,25.5,21.8,0000.0,0001.72,0001.50,0001.29
2022-05-20 13:21:00,,0818.0,5.01,0.00,23.7,22.5,00.0,32.7,25.4,23.5,0000.0,0001.72,0001.51,0001.31
2022-05-20 13:22:00,,0818.1,5.00,0.00,23.6,22.5,00.0,32.7,25.4,23.6,0000.0,0001.95,0001.54,0001.34
2022-05-20 13:23:00,,0818.1,5.01,0.00,23.6,22.4,00.0,32.7,25.4,22.3,0000.0,0003.17,0001.58,0001.36
2022-05-20 13:24:00,,0818.2,5.00,0.00,23.6,22.4,00.0,32.7,25.4,22.0,0000.0,0003.16,0001.60,0001.39
2022-05-20 13:25:00,,0818.3,5.00,0.00,23.6,22.4,00.0,32.7,25.4,21.9,0000.0,0003.19,0001.63,0001.42
2022-05-20 13:26:00,,0818.2,5.00,0.00,23.6,22.4,00.0,32.7,25.3,21.9,0000.0,0003.22,0001.65,0001.44
2022-05-20 13:27:00,,0818.2,5.00,0.00,23.6,22.4,00.0,32.7,25.3,21.9,0000.0,0003.31,0001.70,0001.46
2022-05-20 13:28:00,,0818.2,5.01,0.00,23.6,22.4,00.0,32.7,25.4,21.9,0000.0,0003.39,0001.73,0001.47
2022-05-20 13:29:00,,0818.2,4.99,0.00,23.6,22.4,00.0,32.7,25.3,21.9,0000.0,0003.40,0001.74,0001.48
2022-05-20 13:30:00,,0818.2,5.00,0.00,23.6,22.4,00.0,32.6,25.3,21.9,0000.0,0003.41,0001.76,0001.49
2022-05-20 13:31:00,,0818.1,5.01,0.00,23.6,22.4,00.0,32.6,25.3,22.0,0000.0,0003.39,0001.75,0001.49
2022-05-20 13:32:00,,0818.1,5.00,0.00,23.6,22.4,00.0,32.6,25.4,22.0,0000.0,0003.40,0001.76,0001.49
2022-05-20 13:33:00,,0818.0,5.01,0.00,23.6,22.4,00.0,32.6,25.4,22.0,0000.0,0003.33,0001.74,0001.48
2022-05-20 13:34:00,,0818.0,5.00,0.00,23.6,22.4,00.0,32.6,25.3,22.1,0000.0,0001.97,0001.70,0001.47
2022-05-20 13:35:00,,0818.0,5.00,0.00,23.6,22.4,00.0,32.6,25.3,22.2,0000.0,0002.13,0001.70,0001.47
2022-05-20 13:36:00,,0818.0,5.00,0.00,23.6,22.5,00.0,32.6,25.4,22.2,0000.0,0002.12,0001.69,0001.46
2022-05-20 13:37:00,,0818.0,5.00,0.00,23.6,22.5,00.0,32.6,25.4,22.3,0000.0,0002.27,0001.67,0001.45
2022-05-20 13:38:00,,0818.0,5.00,0.00,23.6,22.5,00.0,32.6,25.5,22.3,0000.0,0002.39,0001.65,0001.45
2022-05-20 13:39:00,,0818.0,4.99,0.00,23.6,22.6,00.0,32.6,25.5,22.3,0000.0,0002.43,0001.65,0001.46
2022-05-20 13:40:00,,0818.0,4.99,0.00,23.7,22.6,00.0,32.6,25.5,22.2,0000.0,0002.60,0001.71,0001.46
2022-05-20 13:41:00,,0818.0,5.00,0.00,23.7,22.7,00.0,32.6,25.5,22.2,0000.0,0002.58,0001.70,0001.46
2022-05-20 13:42:00,,0818.1,5.01,0.00,23.7,22.7,00.0,32.6,25.6,22.2,0000.0,0002.70,0001.73,0001.46
2022-05-20 13:43:00,,0818.0,5.00,0.00,23.7,22.8,00.0,32.6,25.6,22.2,0000.0,0002.65,0001.70,0001.46
2022-05-20 13:44:00,,0818.0,5.00,0.00,23.7,22.8,00.0,32.6,25.6,22.1,0000.0,0002.64,0001.70,0001.46
2022-05-20 13:45:00,,0818.0,4.99,0.00,23.8,22.9,00.0,32.6,25.6,22.0,0000.0,0002.62,0001.73,0001.46
2022-05-20 13:46:00,,0818.0,5.00,0.00,23.8,22.9,00.0,32.7,25.7,22.0,0000.0,0002.43,0001.71,0001.46
2022-05-20 13:47:00,,0818.0,5.00,0.00,23.8,22.9,00.0,32.7,25.7,22.0,0000.0,0002.40,0001.69,0001.45
2022-05-20 13:48:00,,0818.0,4.99,0.00,23.8,22.9,00.0,32.7,25.7,21.9,0000.0,0002.26,0001.69,0001.43
2022-05-20 13:49:00,,0818.1,5.00,0.00,23.8,22.9,00.0,32.7,25.7,21.8,0000.0,0002.04,0001.67,0001.40
2022-05-20 13:50:00,,0818.3,5.01,0.00,23.9,22.9,00.0,32.7,25.7,21.9,0000.0,0001.92,0001.63,0001.37
2022-05-20 13:51:00,,0818.3,4.99,0.00,23.9,23.0,00.0,32.7,25.8,21.9,0000.0,0001.72,0001.53,0001.34
2022-05-20 13:52:00,,0818.4,5.01,0.00,23.9,23.0,00.0,32.7,25.8,21.7,0000.0,0001.66,0001.49,0001.32
2022-05-20 13:53:00,,0818.4,4.99,0.00,23.9,23.0,00.0,32.7,25.9,21.6,0000.0,0001.51,0001.43,0001.29
2022-05-20 13:54:00,,0818.4,4.99,0.00,23.9,23.0,00.0,32.8,25.9,21.6,0000.0,0001.45,0001.40,0001.27
2022-05-20 13:55:00,,0818.4,5.01,0.00,23.9,23.0,00.0,32.8,25.9,21.6,0000.0,0001.45,0001.38,0001.25
2022-05-20 13:56:00,,0818.4,5.00,0.00,23.9,23.0,00.0,32.8,25.9,21.5,0000.0,0001.39,0001.35,0001.24
2022-05-20 13:57:00,,0818.4,5.00,0.00,23.9,23.0,00.0,32.8,25.9,21.5,0000.0,0001.41,0001.37,0001.26
2022-05-20 13:58:00,,0818.4,5.00,0.00,24.0,23.1,00.0,32.8,25.9,21.4,0000.0,0001.42,0001.38,0001.27
2022-05-20 13:59:00,,0818.3,5.00,0.00,24.0,23.1,00.0,32.8,25.9,21.4,0000.0,0001.40,0001.38,0001.28
